This is the latest recevied weather packets stored in our database for station/object N3TTT-13. If no packets are shown the sender has not sent any weather packets the latest 10 day(s).
| Time | Temp. | Humidity | Pressure | Rain* | Wind** | Luminosity | Snow |
|---|---|---|---|---|---|---|---|
| 1777423362 | 12.78° C | 66% | 1018.1 hPa | 0 mm | - | 0 W/m² | - |
| 1777423057 | 12.78° C | 66% | 1018.5 hPa | 0 mm | - | 0 W/m² | - |
| 1777422752 | 12.78° C | 66% | 1018.7 hPa | 0 mm | - | 0 W/m² | - |
| 1777422447 | 12.78° C | 65% | 1018.8 hPa | 0 mm | - | 0 W/m² | - |
| 1777422143 | 12.78° C | 66% | 1018.9 hPa | 0 mm | - | 0 W/m² | - |
| 1777421842 | 12.78° C | 66% | 1019 hPa | 0 mm | - | 0 W/m² | - |
| 1777421537 | 12.78° C | 65% | 1018.7 hPa | 0 mm | - | 0 W/m² | - |
| 1777421234 | 12.78° C | 66% | 1018.6 hPa | 0 mm | - | 0 W/m² | - |
| 1777420930 | 13.33° C | 66% | 1018.6 hPa | 0 mm | - | 0 W/m² | - |
| 1777420626 | 13.33° C | 65% | 1018.6 hPa | 0 mm | - | 0 W/m² | - |
| 1777420323 | 13.33° C | 65% | 1018.4 hPa | 0 mm | - | 0 W/m² | - |
| 1777420019 | 13.33° C | 65% | 1018.4 hPa | 0 mm | - | 0 W/m² | - |
| 1777419715 | 13.33° C | 65% | 1018.4 hPa | 0 mm | - | 2 W/m² | - |
| 1777419412 | 13.89° C | 64% | 1018.6 hPa | 0 mm | - | 2 W/m² | - |
| 1777419107 | 13.89° C | 63% | 1018.5 hPa | 0 mm | - | 3 W/m² | - |
| 1777418806 | 13.89° C | 63% | 1018.8 hPa | 0 mm | - | 4 W/m² | - |
| 1777418503 | 13.89° C | 63% | 1018.7 hPa | 0 mm | - | 6 W/m² | - |
| 1777418199 | 13.89° C | 63% | 1018.6 hPa | 0 mm | - | 8 W/m² | - |
| 1777417895 | 13.89° C | 63% | 1018.5 hPa | 0 mm | - | 12 W/m² | - |
| 1777417592 | 14.44° C | 64% | 1018.6 hPa | 0 mm | - | 16 W/m² | - |
| 1777417287 | 14.44° C | 63% | 1018.5 hPa | 0 mm | - | 20 W/m² | - |
| 1777416984 | 14.44° C | 63% | 1018.6 hPa | 0 mm | - | 22 W/m² | - |
| 1777416679 | 14.44° C | 63% | 1018.4 hPa | 0 mm | - | 27 W/m² | - |
| 1777416375 | 14.44° C | 65% | 1018.5 hPa | 0 mm | - | 39 W/m² | - |
| 1777416075 | 14.44° C | 66% | 1018.3 hPa | 0 mm | - | 47 W/m² | - |
* Rain latest hour (hover to see other rain measurements)
** Current wind speed in m/s (hover to see current wind gust speed)